STARLINK-34921, 65893

Orbit data source: Space-Track

STARLINK-34921, 65893 is a payload satellite owned by SpaceX/Seattle (US) in LEO that was launched on Tue, 07 Oct 2025 UTC via an FALCON 9 launch vehicle from the Air Force Eastern Test Range (AFETR). Payload-class satellites include a variety of spacecraft equipped with specific instruments for various scientific and technological missions. These include communications satellites like Starlink; space stations such as the ISS; scientific satellites like the Hubble; Earth observation satellites from companies like Planet Labs, Umbra, and HawkEye 360; GPS; miniature CubeSats for education and research; and military/defense satellites.

Loading next visibility...
Identifier
65893, 2025-224M
Orbit
LEO
Country
Flag of USUS
Related business
Manufacturer
SpaceX/Seattle
Mission
Operational Commercial Communications
Bus & Motor
STARLINK V2MO, Unknown motor
Mass
575 kg wet, ~530 kg dry
Launch date (UTC)
2025-10-07 (5 months ago)
Launch vehicle
FALCON 9
Launch site
Air Force Eastern Test Range (AFETR)
Object type
Payload
Rocket body
Debris
Shape & HBR
Box + 2 Pan, 17.7 m
Radar Cross Section
36.964 m²

Expand to show TLE details & history
Last TLE update: 14 hours ago

TLE from 14 hours ago
0 STARLINK-34921
1 65893U 25224M   26062.23756333  .00025100  00000-0  85640-3 0  9998
2 65893  53.1593  41.5106 0000951  94.3772 265.7338 15.30211914 23885
Epoch: 2026-03-03T05:42Z
TLE epoch observation values (Epoch: 2026-03-03T05:42:05.471Z)
Latitude
0.00001°
Longitude
154.96831°
Altitude
476.128 km
Speed
7.629 km/s
True Right ascension
02h 46m 02s
True Declination
0° 00' 00"
Sunlit
Object was in daylight at epoch
Visualization orbit readout
Latitude
Unknown
Longitude
Unknown
Altitude
Unknown
Speed
Unknown
Apparent Right ascension
Unknown
Apparent Declination
Unknown
Sunlit
N/A
Visualization observer readout
Local Sidereal Time
23:08:08
Azimuth
Unknown
Elevation
Unknown
Doppler factor
Unknown
Orbital elements
Apogee altitude
476.088 km
Perigee altitude
474.784 km
Semi-major axis
6,853.573 km
Eccentricity
0.0001
Inclination
53.1593°
RAAN
41.5106°
Arg. of periapsis
94.3772°
True anomaly
265.72293°
Mean anomaly
265.7338°
Eccentric anomaly
265.72837°
Mean motion
3.82532 °/min
Orbital period
94.11 mins
BSTAR
0.0008564
Loading maneuver chart data...
Computing Atmospheric mass density...
Loading historical data...
Loading historical data...
Loading historical data...
Loading historical data...
Loading historical data...
Loading historical data...
Loading historical data...

Documentation

Showing up to 5 results
|